OE7DRT-13 Weather Reports


time (UTC)temp
C
wind
direction
speed
KPH
gust
KPH
rain 1hr
cm
rain 24hr
cm
rain mn
cm
humidity
%
barometer
mb
20260507061519 7 214 0.0 1.6 0.00 0.00 0.00 83 1012.5
20260507061017 6 336 0.0 3.2 0.00 0.00 0.00 84 1012.4
20260507060535 6 348 0.0 3.2 0.00 0.00 0.00 82 1012.4
20260507060054 6 0.0 0.0 0.00 0.00 0.00 82 1012.4
20260507055532 6 0.0 0.0 0.00 0.00 0.00 82 1012.2
20260507055030 6 320 0.0 1.6 0.00 0.00 0.00 81 1012.3
20260507054528 7 0.0 0.0 0.00 0.00 0.00 80 1012.1
20260507054047 7 0.0 0.0 0.00 0.00 0.00 80 1012.1
20260507053525 7 0.0 0.0 0.00 0.00 0.00 80 1012.3
20260507053024 7 0.0 0.0 0.00 0.00 0.00 82 1012.2
20260507052522 6 0.0 0.0 0.00 0.00 0.00 83 1012.2
20260507052019 6 0.0 0.0 0.00 0.00 0.00 84 1012.1
20260507051518 6 0.0 0.0 0.00 0.00 0.00 86 1012.0
20260507051016 5 334 1.6 3.2 0.00 0.00 0.00 86 1011.8
20260507050534 5 0.0 0.0 0.00 0.00 0.00 86 1011.7
20260507050033 5 0.0 0.0 0.00 0.00 0.00 86 1011.8
20260507045531 5 343 0.0 1.6 0.00 0.00 0.00 87 1011.8
20260507045030 5 334 0.0 1.6 0.00 0.00 0.00 87 1011.7
20260507044528 5 0.0 0.0 0.00 0.00 0.00 87 1011.6
20260507044026 5 0.0 0.0 0.00 0.00 0.00 88 1011.5
20260507043525 5 0.0 0.0 0.00 0.00 0.00 87 1011.5
20260507043023 5 0.0 0.0 0.00 0.00 0.00 88 1011.4
20260507042522 5 0.0 0.0 0.00 0.00 0.00 87 1011.5
20260507042019 5 0.0 0.0 0.00 0.00 0.00 88 1011.4
20260507041559 5 0.0 0.0 0.00 0.00 0.00 88 1011.4
20260507041017 5 0.0 0.0 0.00 0.00 0.00 89 1011.4
20260507040535 5 0.0 0.0 0.00 0.00 0.00 89 1011.4
20260507040033 5 0.0 0.0 0.00 0.00 0.00 89 1011.4
20260507035531 5 0.0 0.0 0.00 0.00 0.00 88 1011.2
20260507035050 5 0.0 0.0 0.00 0.00 0.00 88 1011.2
20260507034528 5 0.0 0.0 0.00 0.00 0.00 88 1011.3
20260507034026 5 0.0 0.0 0.00 0.00 0.00 88 1011.2
20260507033525 5 0.0 0.0 0.00 0.00 0.00 88 1011.2
20260507033023 5 0.0 0.0 0.00 0.00 0.00 88 1011.1
20260507032522 5 0.0 0.0 0.00 0.00 0.00 87 1011.1
20260507032020 5 0.0 0.0 0.00 0.00 0.00 87 1010.9
20260507031518 5 1 1.6 6.4 0.00 0.00 0.00 86 1010.9
20260507031017 5 319 1.6 6.4 0.00 0.00 0.00 86 1010.9
20260507030555 6 0.0 0.0 0.00 0.00 0.00 85 1011.0
20260507030033 6 0.0 0.0 0.00 0.00 0.00 85 1011.1
20260507025552 6 0.0 0.0 0.00 0.00 0.00 85 1011.1
20260507025030 6 0.0 0.0 0.00 0.00 0.00 85 1011.2
20260507024609 5 0.0 0.0 0.00 0.00 0.00 85 1011.2
20260507024027 6 346 0.0 3.2 0.00 0.00 0.00 84 1011.2
20260507023547 6 347 0.0 3.2 0.00 0.00 0.00 83 1011.2
20260507023023 6 0.0 0.0 0.00 0.00 0.00 82 1011.1
20260507022522 6 0.0 0.0 0.00 0.00 0.00 82 1011.0
20260507022020 6 215 0.0 1.6 0.00 0.00 0.00 80 1011.1
20260507021518 6 231 0.0 1.6 0.00 0.00 0.00 82 1011.0
20260507021016 6 232 0.0 1.6 0.00 0.00 0.00 82 1011.1
20260507020535 6 0.0 0.0 0.00 0.00 0.00 84 1011.0
20260507020053 6 0.0 0.0 0.00 0.00 0.00 85 1011.1
20260507015551 5 0.0 0.0 0.00 0.00 0.00 85 1011.1
20260507015030 5 0.0 0.0 0.00 0.00 0.00 85 1011.0
20260507014528 5 0.0 0.0 0.00 0.00 0.00 85 1010.9
20260507014046 5 0.0 0.0 0.00 0.00 0.00 84 1010.8
20260507013525 5 0.0 0.0 0.00 0.00 0.00 85 1010.8
20260507013043 6 0.0 0.0 0.00 0.00 0.00 85 1010.6
20260507012522 6 0.0 0.0 0.00 0.00 0.00 85 1010.6
20260507012020 6 0.0 0.0 0.00 0.00 0.00 84 1010.6
20260507011538 6 0.0 0.0 0.00 0.00 0.00 84 1010.5
20260507011016 6 0.0 0.0 0.00 0.00 0.00 84 1010.6
20260507010555 6 0.0 0.0 0.00 0.00 0.00 82 1010.7
20260507010033 6 0.0 0.0 0.00 0.00 0.00 81 1010.7
20260507005532 7 0.0 0.0 0.00 0.00 0.00 81 1010.7
20260507005050 7 0.0 0.0 0.00 0.00 0.00 80 1010.7
20260507004548 7 0.0 0.0 0.00 0.00 0.00 80 1010.7
20260507004026 7 0.0 0.0 0.00 0.00 0.00 80 1010.7
20260507003524 7 0.0 0.0 0.00 0.00 0.00 79 1010.7
20260507003023 7 0.0 0.0 0.00 0.00 0.00 80 1010.6
20260507002542 7 0.0 0.0 0.00 0.00 0.00 79 1010.6
20260507002019 7 0.0 0.0 0.00 0.00 0.00 79 1010.6
20260507001517 7 0.0 0.0 0.00 0.00 0.00 78 1010.4
20260507001016 7 0.0 0.0 0.00 0.00 0.00 77 1010.5
20260507000557 7 0.0 0.0 0.00 0.00 0.00 75 1010.5
20260507000033 7 0.0 0.0 0.00 0.00 0.00 76 1010.6
20260506235531 7 0.0 0.0 0.00 0.00 0.00 78 1010.5
20260506235029 7 0.0 0.0 0.00 0.00 0.00 76 1010.4
20260506234528 7 0.0 0.0 0.00 0.00 0.00 75 1010.5
20260506234027 7 0.0 0.0 0.00 0.00 0.00 77 1010.5
20260506233544 6 0.0 0.0 0.00 0.00 0.00 78 1010.5
20260506233025 6 0.0 0.0 0.00 0.00 0.00 78 1010.5
20260506232521 7 0.0 0.0 0.00 0.00 0.00 78 1010.4
20260506232019 7 0.0 0.0 0.00 0.00 0.00 78 1010.3
20260506231518 7 0.0 0.0 0.00 0.00 0.00 78 1010.3
20260506231016 7 0.0 0.0 0.00 0.00 0.00 77 1010.3
20260506230536 7 0.0 0.0 0.00 0.00 0.00 76 1010.3
20260506230033 7 0.0 0.0 0.00 0.00 0.00 74 1010.3
20260506225531 8 0.0 0.0 0.00 0.00 0.00 72 1010.3
20260506225050 8 190 1.6 3.2 0.00 0.00 0.00 72 1010.2
20260506224528 8 211 1.6 3.2 0.00 0.00 0.00 71 1010.1
20260506224026 8 207 0.0 1.6 0.00 0.00 0.00 72 1010.2
20260506223524 8 200 0.0 1.6 0.00 0.00 0.00 72 1010.3
20260506223023 8 0.0 0.0 0.00 0.00 0.00 72 1010.3
20260506222522 8 228 0.0 1.6 0.00 0.00 0.00 71 1010.3
20260506222019 8 223 0.0 1.6 0.00 0.00 0.00 72 1010.3
20260506221519 8 0.0 0.0 0.00 0.00 0.00 73 1010.3
20260506221036 8 0.0 0.0 0.00 0.00 0.00 72 1010.3
20260506220534 8 0.0 0.0 0.00 0.00 0.00 73 1010.5
20260506220033 8 0.0 0.0 0.00 0.00 0.00 72 1010.4
20260506215531 8 0.0 0.0 0.00 0.00 0.00 72 1010.4
20260506215029 8 332 0.0 1.6 0.00 0.00 0.00 69 1010.4
20260506214548 8 0.0 0.0 0.00 0.00 0.00 69 1010.3
20260506214026 8 0.0 0.0 0.00 0.00 0.00 70 1010.2
20260506213524 8 346 1.6 6.4 0.00 0.00 0.00 68 1010.3
20260506213023 8 7 0.0 1.6 0.00 0.00 0.00 68 1010.3
20260506212541 9 360 1.6 9.7 0.00 0.00 0.00 67 1010.1
20260506212019 9 335 1.6 4.8 0.00 0.00 0.00 67 1010.1
20260506211517 9 356 3.2 6.4 0.00 0.00 0.00 66 1010.0
20260506211016 9 354 3.2 4.8 0.00 0.00 0.00 66 1010.1
20260506210534 9 16 3.2 6.4 0.00 0.00 0.00 65 1010.0
20260506210032 9 345 0.0 1.6 0.00 0.00 0.00 73 1009.9
20260506205530 9 0.0 0.0 0.00 0.00 0.00 74 1009.8
20260506205029 9 0.0 0.0 0.00 0.00 0.00 72 1009.9
20260506204527 9 192 0.0 1.6 0.00 0.00 0.00 72 1009.9
20260506204105 9 0.0 0.0 0.00 0.00 0.00 71 1009.8
20260506203527 9 228 0.0 1.6 0.00 0.00 0.00 72 1009.7
20260506203022 9 10 1.6 3.2 0.00 0.00 0.00 72 1009.5
20260506202520 9 0.0 0.0 0.00 0.00 0.00 72 1009.6
20260506202059 9 0.0 0.0 0.00 0.00 0.00 70 1009.6
20260506201516 9 0.0 0.0 0.00 0.00 0.00 72 1009.3
20260506201035 9 0.0 0.0 0.00 0.00 0.00 71 1009.2
20260506200533 9 0.0 0.0 0.00 0.00 0.00 71 1009.1
20260506200031 9 0.0 0.0 0.00 0.00 0.00 71 1008.9
20260506195529 9 0.0 0.0 0.00 0.00 0.00 72 1008.8
20260506195028 9 0.0 0.0 0.00 0.00 0.00 70 1008.7
20260506194528 9 0.0 0.0 0.00 0.00 0.00 70 1008.8
20260506194024 10 0.0 0.0 0.00 0.00 0.00 70 1008.6
20260506193522 10 0.0 0.0 0.00 0.00 0.00 70 1008.6
20260506193020 10 0.0 0.0 0.00 0.00 0.00 69 1008.5
20260506192519 10 0.0 0.0 0.00 0.00 0.00 68 1008.5
20260506192037 10 0.0 0.0 0.00 0.00 0.00 69 1008.5
20260506191534 10 0.0 0.0 0.00 0.00 0.00 68 1008.4
20260506191033 10 0.0 0.0 0.00 0.00 0.00 67 1008.4
20260506190553 10 151 0.0 1.6 0.00 0.00 0.00 66 1008.2
20260506190029 10 346 0.0 1.6 0.00 0.00 0.00 64 1008.2
20260506185527 11 5 0.0 3.2 0.00 0.00 0.00 63 1008.1
20260506185026 11 0.0 0.0 0.00 0.00 0.00 61 1008.0
20260506184523 11 217 0.0 3.2 0.00 0.00 0.00 60 1008.0
20260506184022 11 194 1.6 6.4 0.00 0.00 0.00 59 1007.9
20260506183520 11 349 3.2 6.4 0.00 0.00 0.00 59 1007.8
20260506183018 12 326 1.6 4.8 0.00 0.00 0.00 58 1007.8
20260506182517 12 159 0.0 1.6 0.00 0.00 0.00 61 1007.8
20260506182035 12 17 0.0 4.8 0.00 0.00 0.00 59 1007.7
20260506181533 12 0.0 0.0 0.00 0.00 0.00 65 1007.6
20260506181031 12 359 1.6 4.8 0.00 0.00 0.00 63 1007.5
20260506180529 12 186 0.0 4.8 0.00 0.00 0.00 62 1007.2
20260506180048 12 205 0.0 1.6 0.00 0.00 0.00 61 1007.0
20260506175525 12 0.0 0.0 0.00 0.00 0.00 62 1007.0
20260506175103 13 25 1.6 4.8 0.00 0.00 0.00 59 1006.8
20260506174521 13 12 3.2 11.3 0.00 0.00 0.00 55 1006.7
20260506174019 13 0 1.6 4.8 0.00 0.00 0.00 54 1006.6
20260506173517 13 21 1.6 6.4 0.00 0.00 0.00 54 1006.4
20260506173016 12 28 0.0 9.7 0.00 0.00 0.00 61 1006.5
20260506172534 12 38 0.0 1.6 0.00 0.00 0.00 64 1006.4
20260506172032 13 0.0 0.0 0.00 0.00 0.00 65 1006.4
20260506171530 13 0.0 0.0 0.00 0.00 0.00 63 1006.3
20260506171029 12 0.0 0.0 0.00 0.00 0.00 63 1006.3
20260506170527 13 0.0 0.0 0.00 0.00 0.00 62 1006.2
20260506170046 13 8 1.6 4.8 0.00 0.00 0.00 58 1006.2
20260506165524 13 189 0.0 3.2 0.00 0.00 0.00 55 1006.1
20260506165022 13 202 0.0 3.2 0.00 0.00 0.00 55 1006.1
20260506164520 13 0.0 0.0 0.00 0.00 0.00 56 1006.1
20260506164039 13 0.0 0.0 0.00 0.00 0.00 55 1006.2
20260506163537 14 0.0 0.0 0.00 0.00 0.00 55 1006.2
20260506163035 13 21 0.0 1.6 0.00 0.00 0.00 56 1006.3
20260506162533 14 338 3.2 6.4 0.00 0.00 0.00 56 1006.2
20260506162032 14 146 1.6 4.8 0.00 0.00 0.00 53 1006.2
20260506161530 14 329 1.6 4.8 0.00 0.00 0.00 52 1006.3
20260506161028 13 295 1.6 4.8 0.00 0.00 0.00 54 1006.2
20260506160526 13 168 1.6 4.8 0.00 0.00 0.00 55 1006.2
20260506160025 13 183 1.6 4.8 0.00 0.00 0.00 58 1006.3
20260506155523 13 176 1.6 3.2 0.00 0.00 0.00 59 1006.2
20260506155021 13 183 3.2 6.4 0.00 0.00 0.00 59 1006.2
20260506154519 13 188 3.2 4.8 0.00 0.00 0.00 59 1006.2
20260506154018 13 189 1.6 4.8 0.00 0.00 0.00 58 1006.2
20260506153516 13 308 0.0 1.6 0.00 0.00 0.00 58 1006.2
20260506153034 13 359 1.6 4.8 0.00 0.00 0.00 57 1006.1
20260506152533 13 340 0.0 4.8 0.00 0.00 0.00 59 1006.2
20260506152031 13 147 0.0 1.6 0.00 0.00 0.00 58 1006.1
20260506151529 13 206 0.0 3.2 0.00 0.00 0.00 59 1006.1
20260506151028 13 172 1.6 4.8 0.00 0.00 0.00 59 1006.1
20260506150525 13 165 1.6 4.8 0.00 0.00 0.00 58 1006.2
20260506150044 13 169 0.0 3.2 0.00 0.00 0.00 58 1006.3
20260506145522 13 238 0.0 3.2 0.00 0.00 0.00 58 1006.2
20260506145020 13 222 1.6 4.8 0.00 0.00 0.00 56 1006.2
20260506144539 13 194 1.6 11.3 0.00 0.00 0.00 56 1006.1
20260506144017 13 221 3.2 12.9 0.00 0.00 0.00 57 1006.2
20260506143535 13 148 4.8 17.7 0.00 0.00 0.00 57 1006.2
20260506143034 13 159 4.8 12.9 0.00 0.00 0.00 56 1006.2
20260506142532 13 268 1.6 6.4 0.00 0.00 0.00 54 1006.1
20260506142050 14 352 8.0 14.5 0.00 0.00 0.00 50 1006.1
20260506141549 14 352 12.9 25.7 0.00 0.00 0.00 49 1006.1
20260506141027 14 5 16.1 29.0 0.00 0.00 0.00 49 1005.9
20260506140524 14 355 11.3 20.9 0.00 0.00 0.00 49 1005.8
20260506140023 15 23 14.5 29.0 0.00 0.00 0.00 48 1005.9
20260506135521 15 360 12.9 25.7 0.00 0.00 0.00 48 1005.8
20260506135019 15 7 12.9 25.7 0.00 0.00 0.00 47 1005.8
20260506134518 15 15 14.5 29.0 0.00 0.00 0.00 47 1005.8
20260506134056 14 354 11.3 22.5 0.00 0.00 0.00 47 1005.9
20260506133534 15 12 12.9 24.1 0.00 0.00 0.00 47 1006.1
20260506133033 15 10 12.9 24.1 0.00 0.00 0.00 47 1006.0
20260506132531 15 18 11.3 25.7 0.00 0.00 0.00 46 1005.9
20260506132030 15 4 11.3 20.9 0.00 0.00 0.00 46 1006.1
20260506131548 15 22 8.0 20.9 0.00 0.00 0.00 46 1005.9
20260506131026 15 33 9.7 25.7 0.00 0.00 0.00 47 1006.1
20260506130524 15 4 11.3 22.5 0.00 0.00 0.00 46 1006.2
20260506130022 15 1 12.9 25.7 0.00 0.00 0.00 44 1006.0
20260506125520 15 7 14.5 38.6 0.00 0.00 0.00 44 1005.8
20260506125039 16 360 12.9 27.4 0.00 0.00 0.00 44 1005.6
20260506124517 15 352 3.2 11.3 0.00 0.00 0.00 45 1005.8
20260506124016 15 6 11.3 30.6 0.00 0.00 0.00 44 1005.8
20260506123554 15 13 12.9 30.6 0.00 0.00 0.00 45 1005.8
20260506123052 16 23 16.1 29.0 0.00 0.00 0.00 44 1005.5
20260506122530 16 339 14.5 27.4 0.00 0.00 0.00 44 1005.6
20260506122028 16 10 9.7 22.5 0.00 0.00 0.00 44 1005.5
20260506121527 16 358 11.3 22.5 0.00 0.00 0.00 45 1005.4
20260506121025 15 7 12.9 30.6 0.00 0.00 0.00 46 1005.4
20260506120523 15 5 12.9 40.2 0.00 0.00 0.00 46 1005.6
20260506120041 15 2 14.5 29.0 0.00 0.00 0.00 47 1005.7
20260506115520 15 8 16.1 33.8 0.00 0.00 0.00 48 1005.5
20260506115018 15 18 11.3 22.5 0.00 0.00 0.00 50 1005.7
20260506114516 13 331 3.2 14.5 0.00 0.00 0.00 51 1005.9
20260506114055 13 357 8.0 17.7 0.00 0.00 0.00 54 1005.9
20260506113533 13 355 14.5 27.4 0.00 0.00 0.00 55 1005.9
20260506113031 13 0 9.7 17.7 0.00 0.00 0.00 52 1005.9
20260506112529 13 359 9.7 25.7 0.00 0.00 0.00 51 1005.8
20260506112028 13 353 12.9 22.5 0.00 0.00 0.00 51 1005.9
20260506111526 13 5 14.5 25.7 0.00 0.00 0.00 50 1005.9
20260506111024 13 2 8.0 17.7 0.00 0.00 0.00 50 1006.1
20260506110543 14 349 12.9 24.1 0.00 0.00 0.00 49 1006.0
20260506110020 13 10 4.8 20.9 0.00 0.00 0.00 50 1006.1
20260506105519 13 19 6.4 16.1 0.00 0.00 0.00 50 1006.2
20260506105017 13 11 6.4 20.9 0.00 0.00 0.00 50 1006.2
20260506104516 13 16 9.7 22.5 0.00 0.00 0.00 49 1006.3
20260506104034 13 26 12.9 20.9 0.00 0.00 0.00 49 1006.1
20260506103532 14 8 12.9 30.6 0.00 0.00 0.00 49 1006.1
20260506103030 14 15 16.1 27.4 0.00 0.00 0.00 49 1006.2
20260506102529 14 10 11.3 22.5 0.00 0.00 0.00 49 1006.5
20260506102047 13 6 12.9 27.4 0.00 0.00 0.00 49 1006.5
20260506101546 13 18 16.1 30.6 0.00 0.00 0.00 50 1006.5
20260506101024 13 18 16.1 30.6 0.00 0.00 0.00 50 1006.6
20260506100522 13 7 12.9 29.0 0.00 0.00 0.00 51 1006.6
20260506100020 13 11 17.7 33.8 0.00 0.00 0.00 52 1006.6
20260506095519 12 25 14.5 24.1 0.00 0.00 0.00 53 1006.6
20260506095016 12 24 16.1 29.0 0.00 0.00 0.00 54 1006.9
20260506094535 12 339 12.9 24.1 0.00 0.00 0.00 54 1006.9
20260506094033 12 17 14.5 25.7 0.00 0.00 0.00 55 1006.9
20260506093531 12 10 14.5 30.6 0.00 0.00 0.00 54 1006.8
20260506093029 12 4 11.3 30.6 0.00 0.00 0.00 57 1007.1
20260506092607 12 3 14.5 29.0 0.00 0.00 0.00 58 1007.3
20260506092026 11 340 3.2 11.3 0.00 0.00 0.00 59 1007.5
20260506091524 11 359 8.0 20.9 0.00 0.00 0.00 59 1007.5
20260506091022 11 13 11.3 27.4 0.00 0.00 0.00 56 1007.4
20260506090521 12 15 9.7 17.7 0.00 0.00 0.00 56 1007.3
20260506090019 12 6 12.9 25.7 0.00 0.00 0.00 57 1007.3
20260506085517 11 17 11.3 22.5 0.00 0.00 0.00 57 1007.2
20260506085015 11 28 4.8 16.1 0.00 0.00 0.00 58 1007.4
20260506084534 11 338 9.7 17.7 0.00 0.00 0.00 58 1007.5
20260506084032 12 352 8.0 22.5 0.00 0.00 0.00 57 1007.2
20260506083530 12 339 11.3 20.9 0.00 0.00 0.00 57 1007.1
20260506083028 12 348 4.8 22.5 0.00 0.00 0.00 56 1007.5
20260506082527 12 56 3.2 16.1 0.00 0.00 0.00 53 1007.6
20260506082105 12 355 4.8 17.7 0.00 0.00 0.00 52 1007.4
20260506081523 12 291 1.6 9.7 0.00 0.00 0.00 51 1007.5
20260506081021 12 12 3.2 11.3 0.00 0.00 0.00 51 1007.0
20260506080519 12 39 1.6 9.7 0.00 0.00 0.00 52 1006.8
20260506073028 10 0.0 0.0 0.00 0.00 0.00 69 1007.2
20260506072526 10 181 1.6 4.8 0.00 0.00 0.00 70 1007.4
20260506072044 10 318 1.6 3.2 0.00 0.00 0.00 68 1007.4
20260506071523 9 176 0.0 3.2 0.00 0.00 0.00 68 1007.3
20260506071021 9 34 0.0 1.6 0.00 0.00 0.00 69 1007.5
20260506070539 9 0.0 0.0 0.00 0.00 0.00 68 1007.5
20260506062044 8 338 0.0 1.6 0.00 0.00 0.00 74 1008.0